Weather History for Huntsville Madison, AL

Change the Weather History Date:

Sunday, February 17, 2013

  Actual Average (KHSV) Record (KHSV)
Temperature  
Mean Temperature 32 °F 46 °F  
Max Temperature 44 °F 56 °F 80 °F (1927)
Min Temperature 19 °F 36 °F -8 °F (1958)
Degree Days  
Heating Degree Days 34 19  
Month to date heating degree days 352  
Since 1 July heating degree days 2262  
Cooling Degree Days 0 0  
Month to date cooling degree days 0  
Year to date cooling degree days 0  
Moisture  
Dew Point 12 °F    
Average Humidity 48    
Maximum Humidity 86    
Minimum Humidity 20    
Precipitation  
Precipitation 0.00 in 0.17 in 2.43 in (1986)
Month to date precipitation 2.88  
Year to date precipitation 7.77  
Snow  
Snow 0.00 in - - ()
Month to date snowfall  
Since 1 July snowfall  
Snow Depth -    
Sea Level Pressure  
Sea Level Pressure 30.24 in    
Wind  
Wind Speed 2 mph (SW)    
Max Wind Speed 12 mph    
Max Gust Speed 17 mph    
Visibility 10 miles    
Events      
T = Trace of Precipitation, MM = Missing Value Source: NWS Daily Summary

Daily Weather History Graph

Daily Weather History Graph

Search for Another Location

Airport:

Trip Planner

Search our weather history database for the weather conditions in past years. The results will help you decide how hot, cold, wet, or windy it might be!

Date:

Astronomy

Feb. 17, 2013 Rise Set
Actual Time 6:29 AM CST 5:31 PM CST
Civil Twilight 6:03 AM CST 5:57 PM CST
Nautical Twilight 5:34 AM CST 6:26 PM CST
Astronomical Twilight 5:04 AM CST 6:55 PM CST
Moon 10:40 AM CST 12:08 AM CST
Length of Visible Light 11h 53m
Length of Day
11h 01m
Waxing Crescent, 49% of the Moon is Illuminated
Feb 17
Waxing Crescent
Feb 17
First Quarter
Feb 25
Full
Mar 4
Last Quarter
Mar 11
New

Hourly Weather History & Observations

Time (CST) Temp. Windchill Dew Point Humidity Pressure Visibility Wind Dir Wind Speed Gust Speed Precip Events Conditions
12:15 AM 26.6 °F 21.2 °F 10.4 °F 51% 30.22 in 10.0 mi West 4.6 mph - N/A   Clear
12:35 AM 23.0 °F 18.4 °F 10.4 °F 59% 30.22 in 10.0 mi West 3.5 mph - N/A   Clear
12:55 AM 26.6 °F 21.2 °F 10.4 °F 51% 30.23 in 10.0 mi West 4.6 mph - N/A   Clear
1:15 AM 23.0 °F 17.0 °F 10.4 °F 59% 30.23 in 10.0 mi West 4.6 mph - N/A   Clear
1:35 AM 26.6 °F 21.2 °F 10.4 °F 51% 30.23 in 10.0 mi West 4.6 mph - N/A   Clear
1:55 AM 26.6 °F - 10.4 °F 51% 30.22 in 10.0 mi Calm Calm - N/A   Clear
2:15 AM 23.0 °F - 12.2 °F 63% 30.22 in 10.0 mi Calm Calm - N/A   Clear
2:35 AM 23.0 °F - 12.2 °F 63% 30.22 in 10.0 mi Calm Calm - N/A   Clear
2:55 AM 23.0 °F - 12.2 °F 63% 30.22 in 10.0 mi Calm Calm - N/A   Clear
3:15 AM 21.2 °F - 14.0 °F 74% 30.21 in 10.0 mi Calm Calm - N/A   Clear
3:35 AM 21.2 °F - 15.8 °F 80% 30.21 in 10.0 mi Calm Calm - N/A   Clear
3:55 AM 21.2 °F - 14.0 °F 74% 30.22 in 10.0 mi Calm Calm - N/A   Clear
4:15 AM 19.4 °F - 14.0 °F 80% 30.22 in 10.0 mi Calm Calm - N/A   Clear
4:35 AM 21.2 °F - 14.0 °F 74% 30.23 in 10.0 mi Calm Calm - N/A   Clear
4:55 AM 21.2 °F - 14.0 °F 74% 30.24 in 10.0 mi Calm Calm - N/A   Clear
5:15 AM 19.4 °F - 15.8 °F 86% 30.24 in 10.0 mi Calm Calm - N/A   Clear
5:35 AM 19.4 °F - 14.0 °F 80% 30.25 in 10.0 mi Calm Calm - N/A   Clear
5:55 AM 19.4 °F - 14.0 °F 80% 30.26 in 10.0 mi Calm Calm - N/A   Clear
6:15 AM 21.2 °F - 15.8 °F 80% 30.26 in 10.0 mi Calm Calm - N/A   Clear
6:35 AM 19.4 °F - 14.0 °F 80% 30.26 in 10.0 mi Calm Calm - N/A   Clear
6:55 AM 21.2 °F - 15.8 °F 80% 30.26 in 10.0 mi Calm Calm - N/A   Clear
7:15 AM 21.2 °F - 17.6 °F 86% 30.27 in 10.0 mi Calm Calm - N/A   Mostly Cloudy
7:35 AM 24.8 °F - 17.6 °F 74% 30.27 in 10.0 mi Calm Calm - N/A   Overcast
7:55 AM 26.6 °F - 17.6 °F 69% 30.28 in 10.0 mi Calm Calm - N/A   Overcast
8:15 AM 28.4 °F - 15.8 °F 59% 30.29 in 10.0 mi Calm Calm - N/A   Overcast
8:35 AM 30.2 °F - 17.6 °F 60% 30.30 in 10.0 mi Calm Calm - N/A   Overcast
8:55 AM 32.0 °F - 17.6 °F 55% 30.30 in 10.0 mi Calm Calm - N/A   Overcast
9:15 AM 32.0 °F 25.6 °F 14.0 °F 48% 30.30 in 10.0 mi West 6.9 mph - N/A   Overcast
9:35 AM 33.8 °F 28.6 °F 12.2 °F 41% 30.30 in 10.0 mi WSW 5.8 mph - N/A   Overcast
9:55 AM 33.8 °F 27.0 °F 12.2 °F 41% 30.31 in 10.0 mi WSW 8.1 mph - N/A   Overcast
10:15 AM 35.6 °F 32.8 °F 12.2 °F 38% 30.31 in 10.0 mi WSW 3.5 mph - N/A   Overcast
10:35 AM 35.6 °F 31.7 °F 12.2 °F 38% 30.31 in 10.0 mi NW 4.6 mph - N/A   Overcast
10:55 AM 37.4 °F - 8.6 °F 30% 30.30 in 10.0 mi Calm Calm - N/A   Scattered Clouds
11:15 AM 37.4 °F - 5.0 °F 26% 30.30 in 10.0 mi Calm Calm - N/A   Clear
11:35 AM 37.4 °F - 5.0 °F 26% 30.30 in 10.0 mi Calm Calm - N/A   Clear
11:55 AM 39.2 °F 37.0 °F 6.8 °F 26% 30.28 in 10.0 mi North 3.5 mph - N/A   Clear
12:15 PM 41.0 °F 39.0 °F 6.8 °F 24% 30.27 in 10.0 mi SW 3.5 mph - N/A   Clear
12:55 PM 41.0 °F 39.0 °F 5.0 °F 23% 30.25 in 10.0 mi West 3.5 mph - N/A   Clear
1:15 PM 42.8 °F 40.1 °F 6.8 °F 23% 30.25 in 10.0 mi NW 4.6 mph - N/A   Clear
1:35 PM 42.8 °F 39.3 °F 6.8 °F 23% 30.24 in 10.0 mi SSW 5.8 mph - N/A   Scattered Clouds
1:55 PM 44.6 °F 40.7 °F 6.8 °F 21% 30.23 in 10.0 mi WNW 6.9 mph - N/A   Scattered Clouds
2:15 PM 44.6 °F 39.2 °F 6.8 °F 21% 30.23 in 10.0 mi SSW 10.4 mph - N/A   Mostly Cloudy
2:35 PM 44.6 °F 38.8 °F 8.6 °F 23% 30.23 in 10.0 mi SW 11.5 mph 17.3 mph N/A   Overcast
2:55 PM 44.6 °F 40.7 °F 8.6 °F 23% 30.22 in 10.0 mi WSW 6.9 mph - N/A   Scattered Clouds
3:15 PM 44.6 °F - 6.8 °F 21% 30.22 in 10.0 mi Calm Calm - N/A   Clear
3:35 PM 44.6 °F - 5.0 °F 20% 30.21 in 10.0 mi Calm Calm - N/A   Clear
3:55 PM 44.6 °F 40.2 °F 6.8 °F 21% 30.21 in 10.0 mi WSW 8.1 mph - N/A   Clear
4:15 PM 44.6 °F 40.7 °F 8.6 °F 23% 30.21 in 10.0 mi WSW 6.9 mph - N/A   Mostly Cloudy
4:35 PM 44.6 °F 42.2 °F 6.8 °F 21% 30.21 in 10.0 mi SW 4.6 mph - N/A   Mostly Cloudy
4:55 PM 44.6 °F 43.1 °F 6.8 °F 21% 30.21 in 10.0 mi SW 3.5 mph - N/A   Mostly Cloudy
5:15 PM 44.6 °F 42.2 °F 5.0 °F 20% 30.20 in 10.0 mi SSE 4.6 mph - N/A   Scattered Clouds
5:35 PM 42.8 °F - 6.8 °F 23% 30.20 in 10.0 mi Calm Calm - N/A   Clear
5:55 PM 42.8 °F - 8.6 °F 25% 30.20 in 10.0 mi Calm Calm - N/A   Clear
6:15 PM 41.0 °F - 12.2 °F 31% 30.20 in 10.0 mi Calm Calm - N/A   Clear
6:55 PM 37.4 °F - 15.8 °F 41% 30.21 in 10.0 mi Calm Calm - N/A   Clear
7:15 PM 33.8 °F - 23.0 °F 65% 30.22 in 10.0 mi Calm Calm - N/A   Clear
7:35 PM 35.6 °F 31.7 °F 17.6 °F 48% 30.22 in 10.0 mi SSE 4.6 mph - N/A   Clear
7:55 PM 37.4 °F - 14.0 °F 38% 30.22 in 10.0 mi Calm Calm - N/A   Clear
8:15 PM 35.6 °F - 17.6 °F 48% 30.22 in 10.0 mi Calm Calm - N/A   Clear
8:35 PM 35.6 °F - 15.8 °F 44% 30.22 in 10.0 mi Calm Calm - N/A   Clear
8:55 PM 35.6 °F 31.7 °F 15.8 °F 44% 30.22 in 10.0 mi SSE 4.6 mph - N/A   Clear
9:15 PM 35.6 °F 32.8 °F 14.0 °F 41% 30.23 in 10.0 mi SE 3.5 mph - N/A   Clear
9:35 PM 33.8 °F - 19.4 °F 56% 30.23 in 10.0 mi Calm Calm - N/A   Clear
9:55 PM 33.8 °F - 19.4 °F 56% 30.23 in 10.0 mi Calm Calm - N/A   Clear
10:15 PM 33.8 °F - 17.6 °F 52% 30.22 in 10.0 mi Calm Calm - N/A   Clear
10:55 PM 33.8 °F 30.8 °F 17.6 °F 52% 30.23 in 10.0 mi SSE 3.5 mph - N/A   Clear
11:15 PM 35.6 °F 31.7 °F 15.8 °F 44% 30.22 in 10.0 mi SSE 4.6 mph - N/A   Clear
11:35 PM 35.6 °F 31.7 °F 15.8 °F 44% 30.22 in 10.0 mi SE 4.6 mph - N/A   Clear
11:55 PM 35.6 °F 31.7 °F 15.8 °F 44% 30.22 in 10.0 mi SE 4.6 mph - N/A   Clear